OBJECT B, 63211

Orbit data source: Space-Track

You're viewing an Uncataloged Satellite

Recently launched and/or uncataloged satellites may have evolving metadata. Metadata may include but not limited to: Owner, Maufacturer, Bus, Motor, and Mission.

OBJECT B, 63211 is a satellite in SSO that was launched on Sat, 15 Mar 2025 UTC via an FALCON 9 launch vehicle from the Air Force Western Test Range (AFWTR). Unknown objects in Earth's orbit typically refer to objects detected orbiting the Earth but have not yet been identified or cataloged. These objects could be anything from previously untracked satellites, spent rocket stages, debris from satellite collisions, or even natural meteoroids temporarily captured by Earth's gravity.

Loading next visibility...
Identifier
63211, 2025-052B
Orbit
SSO
Country
Flag of TBDTBD
Related business
Manufacturer
NUSHS
Mission
Operational Amateur Technology
Bus & Motor
CUBESAT 1U, Unknown motor
Mass
1 kg wet, 1 kg dry
Launch date (UTC)
2025-03-15 (1 year ago)
Launch vehicle
FALCON 9
Launch site
Air Force Western Test Range (AFWTR)
Object type
Unknown
Shape & HBR
Box, 0.2 m
Radar Cross Section
0.015 m², Small (<0.1 m²)

Expand to show TLE details & history
Last TLE update: 19 hours ago

TLE from 19 hours ago
0 OBJECT B
1 63211U 25052B   26120.66737334  .00021514  00000-0  65275-3 0  9998
2 63211  97.4041  17.8175 0001023 229.9236 130.1917 15.34126483 62858
Epoch: 2026-04-30T16:01Z
TLE epoch observation values (Epoch: 2026-04-30T16:01:01.056Z)
Latitude
-0.00005°
Longitude
-81.04758°
Altitude
467.078 km
Speed
7.633 km/s
True Right ascension
01h 11m 16s
True Declination
0° 00' 00"
Sunlit
Object was in daylight at epoch
Visualization orbit readout
Latitude
Unknown
Longitude
Unknown
Altitude
Unknown
Speed
Unknown
Apparent Right ascension
Unknown
Apparent Declination
Unknown
Sunlit
N/A
Visualization observer readout
Local Sidereal Time
18:13:31
Azimuth
Unknown
Elevation
Unknown
Doppler factor
Unknown
Orbital elements
Apogee altitude
461.163 km
Perigee altitude
459.764 km
Semi-major axis
6,838.6 km
Eccentricity
0.0001
Inclination
97.4041°
RAAN
17.8175°
Arg. of periapsis
229.9236°
True anomaly
130.20065°
Mean anomaly
130.1917°
Eccentric anomaly
130.19618°
Mean motion
3.83789 °/min
Orbital period
93.8 mins
BSTAR
0.00065275
Loading maneuver chart data...
Computing Atmospheric mass density...
Loading historical data...
Loading historical data...
Loading historical data...
Loading historical data...
Loading historical data...
Loading historical data...
Loading historical data...

Documentation

Showing up to 5 results
|